QPF
0.02 0.03 0.05 0.05 0.03 0.03 0.02 0.01 0.01 0.01 0.02 0.02 0.02 0.03 0.04 0.04 0.05 0.04 0.04 0.04 0.04 0.07 0.09 0.11 0.07 0.05 0.06 0.08 0.06 0.06 0.07 0.07 0.06 0.05 0.05 0.06 0.06 0.07 0.08 0.07 0.05 0.05 0.06
0.02 0.03 0.04 0.03 0.02 0.02 0.02 0.02 0.02 0.02 0.03 0.03 0.02 0.02 0.03 0.04 0.04 0.04 0.04 0.04 0.05 0.07 0.08 0.07 0.06 0.06 0.06 0.08 0.07 0.06 0.06 0.08 0.07 0.07 0.07 0.09 0.09 0.08 0.09 0.09 0.06 0.05 0.05
0.01 0.02 0.02 0.02 0.02 0.01 0.01 0.02 0.03 0.03 0.03 0.03 0.03 0.03 0.03 0.04 0.05 0.04 0.04 0.05 0.05 0.05 0.05 0.06 0.07 0.06 0.06 0.07 0.08 0.07 0.07 0.08 0.09 0.08 0.10 0.11 0.09 0.08 0.09 0.10 0.06 0.05 0.06
0.01 0.02 0.02 0.01 0.01 0.01 0.02 0.02 0.02 0.03 0.02 0.01 0.02 0.02 0.02 0.03 0.04 0.04 0.04 0.05 0.05 0.05 0.05 0.06 0.06 0.07 0.07 0.07 0.07 0.07 0.07 0.09 0.10 0.10 0.10 0.09 0.09 0.08 0.10 0.10 0.09 0.09 0.08
0.01 0.01 0.01 0.01 0.01 0.01 0.02 0.03 0.02 0.02 0.02 0.02 0.02 0.01 0.01 0.01 0.01 0.01 0.03 0.04 0.05 0.05 0.05 0.05 0.05 0.05 0.07 0.07 0.07 0.08 0.07 0.08 0.09 0.08 0.08 0.09 0.10 0.09 0.09 0.10 0.10 0.12 0.12
0.00 0.01 0.01 0.01 0.00 0.01 0.01 0.02 0.02 0.02 0.01 0.01 0.01 0.01 0.01 0.01 0.01 0.02 0.03 0.04 0.04 0.04 0.04 0.05 0.05 0.05 0.08 0.08 0.07 0.07 0.07 0.08 0.07 0.07 0.08 0.07 0.09 0.09 0.09 0.10 0.13 0.16 0.14
0.00 0.00 0.00 0.01 0.01 0.00 0.01 0.01 0.01 0.01 0.01 0.01 0.01 0.01 0.01 0.01 0.01 0.03 0.10 0.08 0.05 0.06 0.06 0.04 0.04 0.05 0.07 0.09 0.10 0.08 0.07 0.07 0.07 0.07 0.05 0.05 0.08 0.10 0.11 0.12 0.13 0.13 0.10
0.00 0.00 0.00 0.01 0.01 0.00 0.00 0.00 0.01 0.01 0.01 0.01 0.01 0.01 0.01 0.02 0.01 0.07 0.22 0.13 0.09 0.06 0.07 0.07 0.06 0.06 0.08 0.11 0.12 0.10 0.08 0.08 0.07 0.07 0.06 0.05 0.07 0.08 0.10 0.11 0.11 0.10 0.08
0.00 0.00 0.00 0.01 0.01 0.01 0.01 0.01 0.01 0.01 0.01 0.01 0.02 0.01 0.01 0.02 0.01 0.05 0.18 0.21 0.12 0.07 0.07 0.06 0.05 0.06 0.07 0.07 0.10 0.14 0.13 0.11 0.09 0.08 0.07 0.08 0.05 0.06 0.09 0.09 0.09 0.08 0.07
0.00 0.00 0.00 0.01 0.01 0.02 0.01 0.00 0.01 0.01 0.01 0.02 0.03 0.02 0.01 0.01 0.01 0.02 0.05 0.08 0.09 0.07 0.05 0.04 0.04 0.05 0.06 0.06 0.06 0.09 0.14 0.13 0.10 0.09 0.10 0.09 0.06 0.07 0.08 0.08 0.08 0.07 0.07
0.00 0.00 0.00 0.01 0.01 0.01 0.01 0.01 0.01 0.01 0.01 0.01 0.03 0.03 0.02 0.01 0.01 0.02 0.03 0.04 0.05 0.05 0.05 0.06 0.05 0.05 0.06 0.06 0.05 0.08 0.10 0.10 0.11 0.11 0.12 0.08 0.07 0.08 0.09 0.08 0.07 0.06 0.07
0.01 0.01 0.00 0.01 0.01 0.01 0.00 0.01 0.02 0.01 0.01 0.01 0.02 0.03 0.04 0.02 0.02 0.01 0.03 0.03 0.03 0.04 0.05 0.06 0.07 0.05 0.03 0.04 0.06 0.09 0.10 0.10 0.12 0.11 0.11 0.11 0.10 0.09 0.09 0.08 0.06 0.05 0.07
0.00 0.00 0.00 0.00 0.01 0.01 0.01 0.01 0.02 0.01 0.01 0.01 0.01 0.01 0.03 0.03 0.03 0.03 0.03 0.03 0.04 0.03 0.04 0.04 0.04 0.03 0.02 0.04 0.06 0.08 0.08 0.08 0.12 0.12 0.11 0.12 0.14 0.12 0.10 0.10 0.08 0.07 0.08
0.01 0.00 0.00 0.00 0.01 0.01 0.01 0.02 0.03 0.02 0.02 0.01 0.02 0.03 0.03 0.04 0.03 0.03 0.03 0.04 0.03 0.03 0.03 0.03 0.03 0.02 0.02 0.04 0.06 0.08 0.09 0.09 0.09 0.10 0.11 0.10 0.11 0.12 0.11 0.10 0.10 0.10 0.10
0.01 0.01 0.01 0.00 0.00 0.00 0.01 0.02 0.03 0.02 0.01 0.01 0.03 0.03 0.03 0.03 0.03 0.03 0.03 0.04 0.03 0.02 0.04 0.05 0.03 0.02 0.02 0.04 0.05 0.09 0.11 0.10 0.10 0.10 0.11 0.11 0.10 0.12 0.12 0.11 0.11 0.10 0.11
0.01 0.01 0.00 0.00 0.00 0.00 0.01 0.01 0.01 0.02 0.02 0.02 0.03 0.03 0.04 0.04 0.03 0.03 0.03 0.04 0.03 0.02 0.03 0.03 0.02 0.02 0.02 0.03 0.04 0.06 0.08 0.09 0.10 0.10 0.12 0.14 0.13 0.12 0.13 0.13 0.12 0.12 0.12
0.01 0.01 0.01 0.01 0.01 0.01 0.01 0.00 0.01 0.02 0.02 0.02 0.03 0.03 0.03 0.03 0.03 0.04 0.04 0.04 0.03 0.02 0.03 0.04 0.04 0.04 0.02 0.03 0.04 0.06 0.06 0.08 0.08 0.10 0.13 0.14 0.15 0.16 0.16 0.16 0.15 0.15 0.16
0.02 0.01 0.01 0.01 0.01 0.01 0.01 0.01 0.01 0.01 0.01 0.02 0.03 0.02 0.03 0.03 0.04 0.04 0.04 0.03 0.03 0.03 0.04 0.05 0.06 0.06 0.05 0.05 0.06 0.07 0.07 0.06 0.05 0.08 0.09 0.13 0.14 0.16 0.16 0.17 0.18 0.17 0.18
0.01 0.01 0.01 0.01 0.01 0.01 0.01 0.01 0.02 0.02 0.02 0.02 0.02 0.03 0.02 0.02 0.02 0.03 0.05 0.04 0.05 0.06 0.07 0.05 0.06 0.07 0.06 0.05 0.05 0.06 0.06 0.05 0.05 0.04 0.05 0.08 0.09 0.11 0.13 0.15 0.16 0.17 0.19
0.03 0.02 0.02 0.02 0.02 0.02 0.01 0.02 0.02 0.02 0.01 0.02 0.02 0.04 0.04 0.04 0.04 0.04 0.04 0.06 0.06 0.07 0.08 0.08 0.06 0.05 0.04 0.04 0.04 0.04 0.05 0.05 0.04 0.04 0.04 0.05 0.07 0.08 0.09 0.11 0.14 0.15 0.18
0.02 0.02 0.02 0.02 0.02 0.01 0.01 0.02 0.02 0.02 0.02 0.02 0.02 0.02 0.03 0.03 0.03 0.04 0.03 0.05 0.05 0.07 0.08 0.07 0.06 0.05 0.03 0.04 0.05 0.05 0.04 0.04 0.03 0.03 0.03 0.03 0.05 0.07 0.07 0.06 0.08 0.10 0.11
0.03 0.03 0.02 0.02 0.01 0.01 0.01 0.01 0.01 0.01 0.01 0.02 0.02 0.03 0.03 0.02 0.02 0.02 0.03 0.04 0.04 0.05 0.06 0.07 0.06 0.05 0.05 0.05 0.05 0.05 0.05 0.05 0.04 0.03 0.02 0.02 0.03 0.05 0.05 0.04 0.05 0.07 0.10
0.02 0.03 0.02 0.02 0.02 0.01 0.01 0.01 0.01 0.01 0.01 0.02 0.03 0.03 0.02 0.02 0.02 0.02 0.03 0.03 0.03 0.03 0.04 0.05 0.05 0.06 0.06 0.07 0.05 0.06 0.06 0.06 0.05 0.04 0.02 0.02 0.02 0.04 0.05 0.04 0.04 0.05 0.10
0.01 0.01 0.02 0.02 0.02 0.02 0.01 0.01 0.01 0.02 0.02 0.03 0.03 0.02 0.02 0.01 0.01 0.01 0.02 0.02 0.03 0.02 0.02 0.03 0.03 0.05 0.08 0.09 0.08 0.06 0.07 0.06 0.05 0.05 0.04 0.02 0.02 0.03 0.03 0.03 0.02 0.03 0.06
0.02 0.01 0.01 0.02 0.02 0.01 0.01 0.02 0.03 0.03 0.03 0.03 0.02 0.02 0.03 0.02 0.01 0.01 0.02 0.02 0.03 0.02 0.02 0.03 0.03 0.05 0.07 0.09 0.09 0.08 0.08 0.06 0.05 0.04 0.04 0.05 0.04 0.04 0.03 0.02 0.01 0.02 0.04
0.02 0.01 0.02 0.03 0.03 0.02 0.02 0.02 0.02 0.03 0.03 0.03 0.03 0.03 0.03 0.02 0.02 0.02 0.01 0.01 0.02 0.02 0.02 0.02 0.04 0.05 0.06 0.07 0.07 0.08 0.08 0.05 0.05 0.05 0.04 0.04 0.05 0.04 0.03 0.02 0.02 0.02 0.04
MSLP
1011.09 1010.84 1010.79 1010.88 1011.01 1011.09 1011.04 1010.83 1010.47 1010.03 1009.58 1009.20 1008.92 1008.78 1008.72 1008.71 1008.69 1008.61 1008.46 1008.25 1008.02 1007.83 1007.72 1007.73 1007.86 1008.09 1008.38 1008.70 1009.01 1009.29 1009.55 1009.79 1010.04 1010.31 1010.61 1010.95 1011.30 1011.67 1012.02 1012.37 1012.70 1013.03 1013.38
1011.24 1011.05 1011.03 1011.13 1011.24 1011.29 1011.20 1010.96 1010.57 1010.11 1009.63 1009.22 1008.91 1008.72 1008.62 1008.55 1008.48 1008.36 1008.17 1007.94 1007.70 1007.49 1007.38 1007.38 1007.50 1007.72 1008.01 1008.33 1008.66 1008.97 1009.27 1009.56 1009.86 1010.17 1010.50 1010.84 1011.20 1011.54 1011.88 1012.21 1012.53 1012.86 1013.21
1011.39 1011.24 1011.24 1011.34 1011.43 1011.46 1011.35 1011.09 1010.70 1010.24 1009.76 1009.34 1009.00 1008.76 1008.60 1008.47 1008.33 1008.15 1007.93 1007.67 1007.42 1007.21 1007.09 1007.08 1007.18 1007.37 1007.64 1007.95 1008.28 1008.62 1008.96 1009.31 1009.66 1010.03 1010.41 1010.79 1011.15 1011.49 1011.81 1012.12 1012.42 1012.74 1013.09
1011.52 1011.40 1011.41 1011.49 1011.57 1011.57 1011.46 1011.21 1010.84 1010.40 1009.95 1009.52 1009.17 1008.88 1008.66 1008.46 1008.26 1008.03 1007.77 1007.50 1007.24 1007.04 1006.91 1006.88 1006.95 1007.10 1007.32 1007.59 1007.90 1008.24 1008.61 1009.01 1009.43 1009.88 1010.32 1010.75 1011.15 1011.50 1011.82 1012.11 1012.40 1012.71 1013.05
1011.62 1011.52 1011.52 1011.58 1011.64 1011.64 1011.52 1011.30 1010.97 1010.57 1010.15 1009.75 1009.38 1009.06 1008.78 1008.52 1008.26 1007.99 1007.71 1007.44 1007.20 1007.00 1006.88 1006.82 1006.84 1006.93 1007.08 1007.27 1007.52 1007.84 1008.21 1008.64 1009.13 1009.65 1010.18 1010.68 1011.13 1011.53 1011.87 1012.17 1012.46 1012.77 1013.11
1011.71 1011.61 1011.59 1011.63 1011.66 1011.65 1011.55 1011.35 1011.07 1010.72 1010.34 1009.96 1009.60 1009.26 1008.94 1008.63 1008.33 1008.04 1007.76 1007.50 1007.27 1007.10 1006.97 1006.89 1006.85 1006.85 1006.90 1006.99 1007.16 1007.41 1007.75 1008.20 1008.73 1009.32 1009.92 1010.51 1011.04 1011.50 1011.89 1012.23 1012.54 1012.87 1013.22
1011.81 1011.70 1011.66 1011.67 1011.67 1011.63 1011.54 1011.37 1011.13 1010.84 1010.50 1010.15 1009.79 1009.44 1009.09 1008.76 1008.43 1008.13 1007.86 1007.62 1007.43 1007.27 1007.14 1007.03 1006.94 1006.84 1006.77 1006.75 1006.79 1006.95 1007.23 1007.65 1008.19 1008.83 1009.51 1010.17 1010.79 1011.34 1011.80 1012.21 1012.58 1012.94 1013.33
1011.97 1011.85 1011.77 1011.73 1011.70 1011.64 1011.54 1011.38 1011.17 1010.92 1010.62 1010.30 1009.96 1009.60 1009.23 1008.88 1008.54 1008.23 1007.97 1007.76 1007.59 1007.45 1007.32 1007.19 1007.03 1006.85 1006.66 1006.50 1006.42 1006.46 1006.65 1007.01 1007.53 1008.18 1008.90 1009.64 1010.34 1010.98 1011.54 1012.04 1012.49 1012.92 1013.36
1012.23 1012.08 1011.98 1011.89 1011.80 1011.71 1011.58 1011.42 1011.23 1010.99 1010.73 1010.42 1010.09 1009.73 1009.36 1008.99 1008.63 1008.32 1008.06 1007.85 1007.70 1007.57 1007.44 1007.28 1007.07 1006.81 1006.52 1006.24 1006.04 1005.95 1006.04 1006.31 1006.78 1007.40 1008.13 1008.91 1009.69 1010.42 1011.09 1011.69 1012.24 1012.76 1013.27
1012.61 1012.45 1012.31 1012.17 1012.03 1011.87 1011.71 1011.52 1011.32 1011.10 1010.85 1010.56 1010.23 1009.88 1009.49 1009.10 1008.72 1008.39 1008.11 1007.89 1007.73 1007.59 1007.44 1007.25 1007.00 1006.69 1006.33 1005.96 1005.66 1005.46 1005.44 1005.61 1005.99 1006.56 1007.27 1008.07 1008.89 1009.70 1010.46 1011.18 1011.84 1012.46 1013.04
1013.13 1012.96 1012.78 1012.58 1012.38 1012.16 1011.94 1011.72 1011.50 1011.27 1011.02 1010.74 1010.43 1010.07 1009.67 1009.26 1008.85 1008.47 1008.15 1007.89 1007.68 1007.50 1007.32 1007.11 1006.84 1006.49 1006.09 1005.68 1005.30 1005.02 1004.90 1004.98 1005.27 1005.76 1006.42 1007.20 1008.04 1008.90 1009.75 1010.56 1011.32 1012.04 1012.70
1013.76 1013.59 1013.37 1013.12 1012.85 1012.57 1012.29 1012.02 1011.77 1011.53 1011.28 1011.02 1010.71 1010.35 1009.95 1009.52 1009.06 1008.62 1008.23 1007.89 1007.61 1007.36 1007.14 1006.89 1006.60 1006.25 1005.84 1005.41 1005.01 1004.68 1004.50 1004.49 1004.69 1005.10 1005.69 1006.42 1007.25 1008.14 1009.04 1009.92 1010.76 1011.56 1012.30
1014.47 1014.28 1014.04 1013.74 1013.41 1013.06 1012.73 1012.42 1012.14 1011.89 1011.64 1011.39 1011.11 1010.76 1010.36 1009.90 1009.40 1008.89 1008.41 1007.97 1007.59 1007.26 1006.97 1006.68 1006.37 1006.02 1005.63 1005.22 1004.82 1004.49 1004.26 1004.19 1004.32 1004.64 1005.16 1005.83 1006.63 1007.51 1008.42 1009.34 1010.24 1011.08 1011.87
1015.18 1014.99 1014.71 1014.38 1013.99 1013.60 1013.22 1012.88 1012.58 1012.33 1012.10 1011.87 1011.61 1011.29 1010.89 1010.42 1009.89 1009.31 1008.74 1008.20 1007.70 1007.27 1006.90 1006.55 1006.22 1005.88 1005.52 1005.14 1004.77 1004.45 1004.22 1004.12 1004.18 1004.44 1004.88 1005.49 1006.23 1007.07 1007.97 1008.89 1009.79 1010.65 1011.45
1015.83 1015.63 1015.34 1014.97 1014.56 1014.14 1013.74 1013.38 1013.07 1012.83 1012.62 1012.42 1012.19 1011.90 1011.53 1011.07 1010.51 1009.89 1009.24 1008.60 1008.00 1007.47 1007.00 1006.59 1006.22 1005.88 1005.54 1005.20 1004.87 1004.58 1004.36 1004.25 1004.28 1004.48 1004.86 1005.39 1006.07 1006.85 1007.70 1008.58 1009.44 1010.28 1011.06
1016.36 1016.15 1015.86 1015.49 1015.07 1014.64 1014.24 1013.88 1013.58 1013.35 1013.16 1012.99 1012.80 1012.55 1012.21 1011.77 1011.22 1010.58 1009.89 1009.18 1008.50 1007.88 1007.32 1006.85 1006.43 1006.07 1005.73 1005.41 1005.12 1004.86 1004.66 1004.55 1004.57 1004.73 1005.05 1005.52 1006.12 1006.83 1007.59 1008.39 1009.19 1009.95 1010.67
1016.75 1016.55 1016.27 1015.91 1015.51 1015.10 1014.72 1014.37 1014.09 1013.87 1013.70 1013.55 1013.38 1013.17 1012.87 1012.46 1011.94 1011.32 1010.62 1009.89 1009.16 1008.47 1007.85 1007.31 1006.84 1006.44 1006.09 1005.77 1005.49 1005.24 1005.06 1004.96 1004.97 1005.11 1005.39 1005.80 1006.32 1006.93 1007.60 1008.29 1008.98 1009.64 1010.28
1017.01 1016.84 1016.58 1016.25 1015.90 1015.53 1015.17 1014.86 1014.59 1014.37 1014.20 1014.05 1013.89 1013.69 1013.43 1013.06 1012.59 1012.01 1011.35 1010.64 1009.91 1009.20 1008.54 1007.95 1007.43 1006.97 1006.58 1006.24 1005.94 1005.70 1005.52 1005.43 1005.43 1005.55 1005.79 1006.14 1006.59 1007.10 1007.65 1008.21 1008.77 1009.32 1009.86
1017.18 1017.03 1016.82 1016.55 1016.25 1015.94 1015.63 1015.34 1015.08 1014.85 1014.65 1014.48 1014.30 1014.10 1013.85 1013.52 1013.11 1012.60 1012.00 1011.35 1010.67 1009.98 1009.31 1008.69 1008.12 1007.62 1007.18 1006.79 1006.46 1006.20 1006.01 1005.90 1005.90 1006.00 1006.20 1006.49 1006.85 1007.26 1007.68 1008.12 1008.55 1008.98 1009.41
1017.28 1017.19 1017.03 1016.83 1016.60 1016.35 1016.09 1015.82 1015.56 1015.31 1015.08 1014.85 1014.63 1014.40 1014.14 1013.84 1013.47 1013.04 1012.54 1011.97 1011.36 1010.73 1010.09 1009.47 1008.88 1008.33 1007.84 1007.40 1007.02 1006.72 1006.49 1006.36 1006.33 1006.40 1006.56 1006.79 1007.07 1007.37 1007.68 1007.99 1008.29 1008.60 1008.94
1017.34 1017.31 1017.22 1017.10 1016.94 1016.76 1016.55 1016.31 1016.04 1015.76 1015.47 1015.18 1014.89 1014.61 1014.32 1014.03 1013.71 1013.35 1012.94 1012.47 1011.96 1011.41 1010.83 1010.23 1009.63 1009.06 1008.51 1008.02 1007.58 1007.23 1006.96 1006.80 1006.73 1006.76 1006.86 1007.02 1007.22 1007.42 1007.62 1007.80 1007.99 1008.21 1008.48
1017.37 1017.41 1017.39 1017.34 1017.26 1017.14 1016.98 1016.77 1016.51 1016.20 1015.85 1015.49 1015.13 1014.79 1014.46 1014.15 1013.85 1013.55 1013.22 1012.86 1012.44 1011.98 1011.47 1010.91 1010.33 1009.74 1009.17 1008.63 1008.14 1007.74 1007.42 1007.20 1007.09 1007.06 1007.10 1007.19 1007.30 1007.40 1007.50 1007.59 1007.69 1007.83 1008.05
1017.36 1017.46 1017.51 1017.53 1017.52 1017.46 1017.35 1017.17 1016.92 1016.60 1016.23 1015.81 1015.40 1014.99 1014.62 1014.28 1013.99 1013.71 1013.44 1013.15 1012.82 1012.43 1011.99 1011.48 1010.93 1010.35 1009.76 1009.19 1008.67 1008.21 1007.85 1007.58 1007.40 1007.32 1007.29 1007.29 1007.32 1007.34 1007.35 1007.36 1007.39 1007.48 1007.67
1017.28 1017.44 1017.55 1017.63 1017.67 1017.67 1017.61 1017.48 1017.27 1016.96 1016.58 1016.15 1015.70 1015.26 1014.84 1014.48 1014.16 1013.89 1013.64 1013.39 1013.11 1012.78 1012.39 1011.93 1011.41 1010.84 1010.25 1009.67 1009.13 1008.64 1008.24 1007.92 1007.68 1007.52 1007.42 1007.35 1007.29 1007.23 1007.18 1007.13 1007.13 1007.20 1007.39
1017.11 1017.33 1017.49 1017.61 1017.70 1017.75 1017.74 1017.67 1017.51 1017.26 1016.91 1016.50 1016.05 1015.59 1015.16 1014.76 1014.42 1014.12 1013.86 1013.61 1013.34 1013.03 1012.66 1012.23 1011.74 1011.20 1010.63 1010.05 1009.50 1009.00 1008.56 1008.20 1007.91 1007.68 1007.51 1007.36 1007.24 1007.12 1007.01 1006.94 1006.92 1007.00 1007.21
1016.87 1017.13 1017.32 1017.47 1017.60 1017.70 1017.75 1017.74 1017.65 1017.47 1017.20 1016.84 1016.43 1015.99 1015.55 1015.13 1014.75 1014.41 1014.10 1013.81 1013.51 1013.19 1012.82 1012.40 1011.93 1011.41 1010.86 1010.31 1009.76 1009.26 1008.80 1008.41 1008.07 1007.79 1007.56 1007.35 1007.17 1007.01 1006.88 1006.79 1006.79 1006.89 1007.13
Thickness
5803 5800 5787 5785 5782 5781 5779 5778 5776 5775 5774 5773 5772 5771 5770 5770 5769 5769 5768 5768 5768 5767 5766 5766 5766 5766 5766 5766 5766 5766 5767 5767 5767 5767 5767 5766 5765 5764 5764 5764 5764 5764 5762
5806 5798 5787 5784 5781 5779 5777 5776 5774 5773 5772 5771 5770 5769 5768 5768 5767 5767 5767 5766 5766 5766 5765 5765 5765 5764 5764 5764 5764 5764 5765 5765 5765 5765 5765 5764 5763 5762 5762 5762 5762 5763 5760
5805 5797 5788 5783 5780 5778 5776 5774 5773 5771 5770 5769 5768 5767 5767 5766 5765 5765 5765 5765 5764 5764 5764 5763 5763 5763 5763 5763 5762 5763 5763 5763 5763 5763 5764 5765 5764 5761 5760 5760 5759 5759 5757
5804 5798 5790 5781 5778 5776 5774 5772 5771 5770 5769 5768 5766 5765 5765 5764 5764 5763 5763 5762 5762 5762 5762 5761 5761 5761 5761 5761 5761 5761 5761 5761 5761 5762 5764 5766 5765 5761 5759 5758 5757 5756 5755
5803 5798 5787 5781 5777 5774 5772 5771 5769 5768 5767 5766 5765 5764 5763 5762 5762 5761 5761 5760 5760 5760 5760 5760 5759 5759 5759 5759 5759 5759 5759 5759 5760 5761 5765 5765 5763 5760 5758 5756 5755 5754 5752
5803 5797 5787 5779 5776 5773 5771 5769 5767 5766 5765 5764 5763 5762 5761 5760 5760 5759 5759 5758 5758 5758 5758 5758 5757 5757 5757 5757 5757 5757 5757 5758 5759 5763 5763 5763 5761 5758 5756 5754 5753 5752 5750
5801 5796 5786 5778 5774 5772 5769 5767 5766 5764 5763 5762 5761 5760 5759 5759 5758 5758 5758 5757 5756 5756 5756 5756 5755 5755 5755 5754 5754 5755 5755 5757 5759 5762 5762 5761 5759 5756 5754 5752 5751 5749 5748
5800 5795 5785 5777 5773 5770 5768 5765 5764 5762 5761 5760 5759 5758 5758 5757 5757 5756 5757 5756 5755 5754 5754 5753 5753 5752 5752 5752 5752 5753 5754 5755 5759 5760 5760 5759 5756 5753 5751 5750 5748 5747 5745
5798 5793 5788 5782 5775 5770 5767 5765 5762 5761 5760 5759 5757 5756 5756 5755 5755 5754 5754 5753 5752 5752 5752 5751 5751 5750 5750 5750 5750 5752 5753 5754 5757 5758 5759 5757 5753 5750 5748 5747 5746 5744 5743
5796 5793 5788 5784 5780 5775 5770 5764 5762 5760 5758 5757 5756 5755 5754 5754 5754 5753 5753 5751 5750 5750 5750 5749 5749 5749 5748 5748 5749 5750 5752 5753 5756 5758 5757 5754 5750 5748 5746 5745 5743 5742 5740
5791 5790 5788 5784 5780 5777 5773 5767 5763 5760 5758 5757 5756 5754 5754 5756 5756 5754 5752 5750 5749 5749 5748 5748 5747 5747 5747 5747 5748 5749 5751 5754 5756 5756 5754 5751 5748 5746 5745 5743 5741 5740 5738
5788 5788 5787 5784 5780 5777 5773 5768 5765 5764 5760 5758 5757 5756 5756 5755 5754 5753 5750 5749 5748 5747 5747 5746 5746 5746 5747 5749 5749 5749 5752 5754 5754 5753 5751 5748 5746 5744 5743 5741 5740 5738 5737
5789 5786 5786 5782 5779 5776 5773 5769 5766 5764 5761 5758 5756 5754 5753 5753 5753 5752 5752 5750 5749 5748 5748 5747 5748 5748 5749 5749 5749 5751 5752 5753 5753 5752 5750 5747 5745 5743 5742 5740 5739 5737 5735
5788 5785 5784 5781 5777 5774 5771 5768 5765 5763 5760 5758 5755 5752 5752 5751 5751 5750 5749 5750 5749 5749 5747 5747 5747 5746 5746 5747 5748 5749 5750 5751 5751 5750 5748 5745 5744 5742 5741 5739 5737 5736 5735
5786 5784 5781 5778 5773 5770 5767 5765 5763 5761 5760 5757 5753 5751 5750 5750 5749 5749 5747 5746 5747 5748 5747 5745 5745 5744 5745 5745 5746 5747 5747 5748 5749 5749 5747 5744 5743 5742 5741 5739 5737 5736 5734
5784 5781 5779 5775 5771 5767 5764 5762 5761 5760 5756 5755 5752 5750 5748 5748 5746 5746 5745 5744 5745 5745 5745 5744 5744 5743 5743 5743 5743 5744 5745 5746 5746 5746 5746 5745 5743 5741 5740 5738 5736 5735 5734
5782 5779 5775 5773 5769 5765 5763 5761 5760 5758 5756 5754 5751 5748 5746 5745 5744 5743 5744 5743 5744 5743 5742 5742 5742 5741 5741 5741 5741 5741 5742 5743 5744 5744 5744 5745 5744 5741 5740 5737 5736 5735 5733
5781 5776 5773 5772 5768 5763 5760 5758 5759 5757 5754 5752 5750 5748 5745 5744 5742 5741 5742 5742 5741 5741 5741 5740 5740 5739 5738 5737 5738 5738 5740 5740 5741 5741 5742 5743 5743 5743 5740 5737 5735 5734 5732
5779 5774 5770 5769 5766 5763 5760 5757 5756 5753 5752 5751 5749 5747 5745 5743 5742 5741 5740 5739 5739 5739 5738 5739 5738 5736 5734 5734 5735 5735 5737 5738 5738 5740 5740 5741 5740 5740 5739 5736 5734 5733 5731
5777 5772 5769 5766 5763 5761 5759 5756 5754 5752 5751 5750 5748 5745 5743 5742 5741 5740 5739 5737 5737 5737 5736 5735 5733 5733 5733 5733 5735 5734 5735 5736 5736 5737 5737 5738 5737 5737 5737 5736 5735 5733 5730
5774 5770 5767 5765 5762 5759 5757 5755 5752 5751 5750 5749 5747 5743 5742 5741 5740 5739 5739 5737 5736 5735 5734 5734 5733 5732 5732 5733 5732 5731 5733 5735 5734 5734 5735 5735 5735 5734 5734 5734 5733 5732 5731
5772 5769 5766 5763 5761 5759 5756 5753 5751 5750 5749 5748 5746 5742 5741 5740 5739 5740 5737 5737 5736 5734 5733 5732 5731 5731 5731 5732 5730 5729 5728 5728 5730 5734 5733 5732 5732 5733 5732 5732 5730 5729 5729
5771 5769 5767 5762 5760 5757 5755 5753 5751 5747 5746 5746 5743 5742 5740 5739 5738 5736 5736 5736 5735 5735 5733 5731 5730 5728 5728 5730 5730 5728 5726 5724 5727 5729 5729 5730 5729 5730 5730 5730 5728 5728 5727
5772 5770 5766 5760 5757 5755 5753 5751 5748 5745 5743 5743 5742 5742 5740 5738 5737 5735 5734 5734 5733 5734 5732 5731 5731 5729 5727 5727 5729 5729 5728 5727 5723 5723 5727 5728 5728 5727 5727 5728 5728 5727 5725
5772 5769 5765 5759 5755 5752 5750 5748 5745 5744 5743 5742 5740 5738 5737 5737 5735 5734 5733 5732 5731 5732 5731 5730 5728 5727 5728 5727 5727 5727 5726 5725 5726 5722 5720 5722 5724 5725 5725 5725 5725 5725 5724
5769 5766 5763 5757 5752 5750 5747 5746 5743 5741 5738 5737 5735 5735 5735 5736 5734 5732 5732 5730 5729 5729 5729 5728 5727 5727 5726 5725 5726 5726 5725 5725 5725 5724 5721 5720 5720 5721 5722 5722 5722 5722 5721